Time,TemperatureF,DewpointF,PressureIn,WindDirection,WindDirectionDegrees,WindSpeedMPH,WindSpeedGustMPH,Humidity,HourlyPrecipIn,Conditions,Clouds,dailyrainin,SolarRadiationWatts/m^2,SoftwareType,DateUTC
2013-02-21 00:00:00,26.8,14.4,30.13,NNW,330,4.0,11.0,59,0.00,,,0.00,0.0,meteohub,2013-02-21 05:00:00,
2013-02-21 00:01:00,26.8,14.4,30.13,NNW,345,3.0,11.0,59,0.00,,,0.00,0.0,meteohub,2013-02-21 05:01:00,
2013-02-21 00:06:00,26.6,14.2,30.13,NNW,338,4.0,11.0,59,0.00,,,0.00,0.0,meteohub,2013-02-21 05:06:00,
2013-02-21 00:11:00,26.6,14.2,30.13,NE,34,2.0,11.0,59,0.00,,,0.00,0.0,meteohub,2013-02-21 05:11:00,
2013-02-21 00:17:00,26.6,14.2,30.13,North,355,10.0,13.0,59,0.00,,,0.00,0.0,meteohub,2013-02-21 05:17:00,
2013-02-21 00:22:00,26.4,14.4,30.13,North,355,3.0,13.0,60,0.00,,,0.00,0.0,meteohub,2013-02-21 05:22:00,
2013-02-21 00:27:00,26.4,14.4,30.12,NW,313,5.0,13.0,60,0.00,,,0.00,0.0,meteohub,2013-02-21 05:27:00,
2013-02-21 00:32:00,26.4,14.4,30.12,North,0,2.0,13.0,60,0.00,,,0.00,0.0,meteohub,2013-02-21 05:32:00,
2013-02-21 00:37:00,26.4,14.4,30.13,North,0,6.0,12.0,60,0.00,,,0.00,0.0,meteohub,2013-02-21 05:37:00,
2013-02-21 00:42:00,26.2,14.2,30.12,North,355,2.0,12.0,60,0.00,,,0.00,0.0,meteohub,2013-02-21 05:42:00,
2013-02-21 00:47:00,26.2,14.2,30.12,NNW,327,2.0,12.0,60,0.00,,,0.00,0.0,meteohub,2013-02-21 05:47:00,
2013-02-21 00:52:00,26.2,14.2,30.13,North,350,3.0,12.0,60,0.00,,,0.00,0.0,meteohub,2013-02-21 05:52:00,
2013-02-21 00:57:00,26.2,14.2,30.12,North,5,5.0,11.0,60,0.00,,,0.00,0.0,meteohub,2013-02-21 05:57:00,
2013-02-21 01:02:00,26.2,14.5,30.12,NNW,346,4.0,11.0,61,0.00,,,0.00,0.0,meteohub,2013-02-21 06:02:00,
2013-02-21 01:07:00,26.2,14.5,30.12,NW,304,2.0,11.0,61,0.00,,,0.00,0.0,meteohub,2013-02-21 06:07:00,
2013-02-21 01:13:00,26.2,14.5,30.13,NNW,342,0.0,10.0,61,0.00,,,0.00,0.0,meteohub,2013-02-21 06:13:00,
2013-02-21 01:18:00,26.2,14.5,30.12,NNE,17,1.0,10.0,61,0.00,,,0.00,0.0,meteohub,2013-02-21 06:18:00,
2013-02-21 01:23:00,26.2,14.5,30.12,NNW,337,2.0,13.0,61,0.00,,,0.00,0.0,meteohub,2013-02-21 06:23:00,
2013-02-21 01:28:00,26.1,14.9,30.12,NNW,329,4.0,13.0,62,0.00,,,0.00,0.0,meteohub,2013-02-21 06:28:00,
2013-02-21 01:33:00,26.1,14.9,30.12,NNW,341,3.0,10.0,62,0.00,,,0.00,0.0,meteohub,2013-02-21 06:33:00,
2013-02-21 01:38:00,26.1,14.9,30.12,NW,325,2.0,10.0,62,0.00,,,0.00,0.0,meteohub,2013-02-21 06:38:00,
2013-02-21 01:43:00,26.1,14.9,30.12,NW,312,1.0,10.0,62,0.00,,,0.00,0.0,meteohub,2013-02-21 06:43:00,
2013-02-21 01:48:00,26.1,14.9,30.12,North,0,0.0,10.0,62,0.00,,,0.00,0.0,meteohub,2013-02-21 06:48:00,
2013-02-21 01:53:00,26.1,14.9,30.12,NNE,13,2.0,12.0,62,0.00,,,0.00,0.0,meteohub,2013-02-21 06:53:00,
2013-02-21 01:58:00,25.9,14.7,30.12,NNW,335,9.0,12.0,62,0.00,,,0.00,0.0,meteohub,2013-02-21 06:58:00,
2013-02-21 02:03:00,26.1,14.9,30.12,NNE,20,2.0,9.0,62,0.00,,,0.00,0.0,meteohub,2013-02-21 07:03:00,
2013-02-21 02:08:00,25.9,15.1,30.12,NNE,29,3.0,9.0,63,0.00,,,0.00,0.0,meteohub,2013-02-21 07:08:00,
2013-02-21 02:13:00,25.9,15.1,30.12,NNE,19,2.0,9.0,63,0.00,,,0.00,0.0,meteohub,2013-02-21 07:13:00,
2013-02-21 02:19:00,25.9,15.1,30.12,NNE,13,6.0,12.0,63,0.00,,,0.00,0.0,meteohub,2013-02-21 07:19:00,
2013-02-21 02:24:00,25.9,15.1,30.13,NNW,348,4.0,12.0,63,0.00,,,0.00,0.0,meteohub,2013-02-21 07:24:00,
2013-02-21 02:29:00,25.9,15.1,30.12,NNW,334,6.0,12.0,63,0.00,,,0.00,0.0,meteohub,2013-02-21 07:29:00,
2013-02-21 02:34:00,25.9,15.1,30.13,NNW,335,0.0,13.0,63,0.00,,,0.00,0.0,meteohub,2013-02-21 07:34:00,
2013-02-21 02:39:00,25.9,15.4,30.12,NNE,26,0.0,13.0,64,0.00,,,0.00,0.0,meteohub,2013-02-21 07:39:00,
2013-02-21 02:44:00,25.7,15.3,30.12,NNE,17,0.0,10.0,64,0.00,,,0.00,0.0,meteohub,2013-02-21 07:44:00,
2013-02-21 02:49:00,25.7,15.3,30.12,North,10,0.0,10.0,64,0.00,,,0.00,0.0,meteohub,2013-02-21 07:49:00,
2013-02-21 02:54:00,25.7,15.3,30.12,North,0,0.0,10.0,64,0.00,,,0.00,0.0,meteohub,2013-02-21 07:54:00,
2013-02-21 02:59:00,25.5,15.1,30.12,NNW,338,0.0,8.0,64,0.00,,,0.00,0.0,meteohub,2013-02-21 07:59:00,
2013-02-21 03:04:00,25.5,15.1,30.12,NNW,337,2.0,8.0,64,0.00,,,0.00,0.0,meteohub,2013-02-21 08:04:00,
2013-02-21 03:09:00,25.5,15.1,30.12,North,0,1.0,8.0,64,0.00,,,0.00,0.0,meteohub,2013-02-21 08:09:00,
2013-02-21 03:14:00,25.5,15.1,30.12,North,355,0.0,8.0,64,0.00,,,0.00,0.0,meteohub,2013-02-21 08:14:00,
2013-02-21 03:19:00,25.5,15.1,30.12,NW,314,3.0,10.0,64,0.00,,,0.00,0.0,meteohub,2013-02-21 08:19:00,
2013-02-21 03:25:00,25.5,15.1,30.12,North,9,5.0,10.0,64,0.00,,,0.00,0.0,meteohub,2013-02-21 08:25:00,
2013-02-21 03:30:00,25.5,15.1,30.12,NNW,342,5.0,10.0,64,0.00,,,0.00,0.0,meteohub,2013-02-21 08:30:00,
2013-02-21 03:35:00,25.7,15.3,30.12,NW,308,3.0,8.0,64,0.00,,,0.00,0.0,meteohub,2013-02-21 08:35:00,
2013-02-21 03:40:00,25.7,15.3,30.12,NNW,334,2.0,8.0,64,0.00,,,0.00,0.0,meteohub,2013-02-21 08:40:00,
2013-02-21 03:45:00,25.7,15.3,30.12,NNE,21,0.0,8.0,64,0.00,,,0.00,0.0,meteohub,2013-02-21 08:45:00,
2013-02-21 03:50:00,25.9,15.4,30.12,NNW,344,2.0,8.0,64,0.00,,,0.00,0.0,meteohub,2013-02-21 08:50:00,
2013-02-21 03:55:00,25.7,15.6,30.12,NNW,340,0.0,8.0,65,0.00,,,0.00,0.0,meteohub,2013-02-21 08:55:00,
2013-02-21 04:00:00,25.7,15.6,30.12,NNW,341,0.0,8.0,65,0.00,,,0.00,0.0,meteohub,2013-02-21 09:00:00,
2013-02-21 04:05:00,25.7,15.6,30.12,NNE,22,0.0,6.0,65,0.00,,,0.00,0.0,meteohub,2013-02-21 09:05:00,
2013-02-21 04:10:00,25.9,15.8,30.12,NNW,343,0.0,6.0,65,0.00,,,0.00,0.0,meteohub,2013-02-21 09:10:00,
2013-02-21 04:15:00,25.7,15.6,30.13,North,5,1.0,7.0,65,0.00,,,0.00,0.0,meteohub,2013-02-21 09:15:00,
2013-02-21 04:20:00,25.7,15.6,30.13,NNW,332,3.0,7.0,65,0.00,,,0.00,0.0,meteohub,2013-02-21 09:20:00,
2013-02-21 04:25:00,25.7,15.6,30.13,NNW,345,5.0,7.0,65,0.00,,,0.00,0.0,meteohub,2013-02-21 09:25:00,
2013-02-21 04:30:00,25.9,15.8,30.13,NNE,24,0.0,7.0,65,0.00,,,0.00,0.0,meteohub,2013-02-21 09:30:00,
2013-02-21 04:35:00,25.7,15.6,30.13,North,0,4.0,7.0,65,0.00,,,0.00,0.0,meteohub,2013-02-21 09:35:00,
2013-02-21 04:41:00,25.9,15.8,30.13,NNE,32,0.0,7.0,65,0.00,,,0.00,0.0,meteohub,2013-02-21 09:41:00,
2013-02-21 04:46:00,25.7,15.6,30.13,NNE,18,2.0,7.0,65,0.00,,,0.00,0.0,meteohub,2013-02-21 09:46:00,
2013-02-21 04:51:00,25.5,15.4,30.13,NNE,28,3.0,7.0,65,0.00,,,0.00,0.0,meteohub,2013-02-21 09:51:00,
2013-02-21 04:56:00,25.7,15.6,30.14,NE,40,2.0,7.0,65,0.00,,,0.00,0.0,meteohub,2013-02-21 09:56:00,
2013-02-21 05:01:00,25.9,15.8,30.14,North,10,3.0,7.0,65,0.00,,,0.00,0.0,meteohub,2013-02-21 10:01:00,
2013-02-21 05:06:00,25.9,15.8,30.14,North,355,2.0,7.0,65,0.00,,,0.00,0.0,meteohub,2013-02-21 10:06:00,
2013-02-21 05:11:00,25.7,16.0,30.13,WNW,296,1.0,8.0,66,0.00,,,0.00,0.0,meteohub,2013-02-21 10:11:00,
2013-02-21 05:16:00,25.7,16.0,30.13,NNW,343,1.0,8.0,66,0.00,,,0.00,0.0,meteohub,2013-02-21 10:16:00,
2013-02-21 05:21:00,25.9,16.2,30.13,NNE,29,0.0,8.0,66,0.00,,,0.00,0.0,meteohub,2013-02-21 10:21:00,
2013-02-21 05:26:00,25.7,16.0,30.13,North,355,1.0,8.0,66,0.00,,,0.00,0.0,meteohub,2013-02-21 10:26:00,
2013-02-21 05:31:00,25.7,16.0,30.13,NNE,14,0.0,8.0,66,0.00,,,0.00,0.0,meteohub,2013-02-21 10:31:00,
2013-02-21 05:36:00,25.9,16.2,30.14,North,5,0.0,6.0,66,0.00,,,0.00,0.0,meteohub,2013-02-21 10:36:00,
2013-02-21 05:42:00,25.9,16.2,30.14,North,11,0.0,6.0,66,0.00,,,0.00,0.0,meteohub,2013-02-21 10:42:00,
2013-02-21 05:47:00,25.9,16.2,30.14,NW,321,8.0,8.0,66,0.00,,,0.00,0.0,meteohub,2013-02-21 10:47:00,
2013-02-21 05:52:00,25.9,16.2,30.14,NNW,330,3.0,6.0,66,0.00,,,0.00,0.0,meteohub,2013-02-21 10:52:00,
2013-02-21 05:57:00,25.9,16.2,30.13,North,355,4.0,8.0,66,0.00,,,0.00,0.0,meteohub,2013-02-21 10:57:00,
2013-02-21 06:02:00,25.9,16.5,30.13,North,355,6.0,8.0,67,0.00,,,0.00,0.0,meteohub,2013-02-21 11:02:00,
2013-02-21 06:07:00,25.9,16.2,30.14,North,0,3.0,8.0,66,0.00,,,0.00,0.0,meteohub,2013-02-21 11:07:00,
2013-02-21 06:12:00,25.9,16.2,30.14,NW,318,0.0,8.0,66,0.00,,,0.00,0.0,meteohub,2013-02-21 11:12:00,
2013-02-21 06:17:00,25.9,16.2,30.14,North,355,4.0,8.0,66,0.00,,,0.00,0.0,meteohub,2013-02-21 11:17:00,
2013-02-21 06:22:00,25.9,16.2,30.14,NNE,15,2.0,9.0,66,0.00,,,0.00,0.0,meteohub,2013-02-21 11:22:00,
2013-02-21 06:27:00,25.9,16.5,30.14,North,355,3.0,9.0,67,0.00,,,0.00,0.0,meteohub,2013-02-21 11:27:00,
2013-02-21 06:32:00,25.9,16.5,30.14,NNW,328,4.0,9.0,67,0.00,,,0.00,0.0,meteohub,2013-02-21 11:32:00,
2013-02-21 06:37:00,25.9,16.5,30.14,NNW,346,2.0,9.0,67,0.00,,,0.00,0.0,meteohub,2013-02-21 11:37:00,
2013-02-21 06:42:00,25.9,16.5,30.14,NW,321,3.0,9.0,67,0.00,,,0.00,0.0,meteohub,2013-02-21 11:42:00,
2013-02-21 06:47:00,25.9,16.5,30.15,NNE,19,0.0,9.0,67,0.00,,,0.00,0.0,meteohub,2013-02-21 11:47:00,
2013-02-21 06:52:00,25.9,16.5,30.15,NNW,338,0.0,7.0,67,0.00,,,0.00,5.0,meteohub,2013-02-21 11:52:00,
2013-02-21 06:57:00,25.7,16.3,30.15,NNE,17,2.0,7.0,67,0.00,,,0.00,7.0,meteohub,2013-02-21 11:57:00,
2013-02-21 07:02:00,25.7,16.3,30.16,WNW,300,4.0,7.0,67,0.00,,,0.00,12.0,meteohub,2013-02-21 12:02:00,
2013-02-21 07:07:00,25.9,16.5,30.16,NNW,346,0.0,7.0,67,0.00,,,0.00,12.0,meteohub,2013-02-21 12:07:00,
2013-02-21 07:13:00,25.9,16.5,30.16,NNW,333,3.0,7.0,67,0.00,,,0.00,21.0,meteohub,2013-02-21 12:13:00,
2013-02-21 07:18:00,26.1,16.7,30.16,North,349,4.0,7.0,67,0.00,,,0.00,19.0,meteohub,2013-02-21 12:18:00,
2013-02-21 07:23:00,26.2,16.7,30.16,NW,320,4.0,11.0,67,0.00,,,0.00,23.0,meteohub,2013-02-21 12:23:00,
2013-02-21 07:28:00,26.2,16.7,30.16,North,0,3.0,11.0,67,0.00,,,0.00,25.0,meteohub,2013-02-21 12:28:00,
2013-02-21 07:33:00,26.2,16.7,30.16,North,355,5.0,11.0,67,0.00,,,0.00,28.0,meteohub,2013-02-21 12:33:00,
2013-02-21 07:38:00,26.4,16.5,30.17,NNW,336,3.0,11.0,66,0.00,,,0.00,58.0,meteohub,2013-02-21 12:38:00,
2013-02-21 07:43:00,26.6,16.7,30.17,North,11,0.0,11.0,66,0.00,,,0.00,90.0,meteohub,2013-02-21 12:43:00,
2013-02-21 07:48:00,26.8,16.9,30.17,NNW,344,4.0,12.0,66,0.00,,,0.00,83.0,meteohub,2013-02-21 12:48:00,
2013-02-21 07:53:00,27.0,17.1,30.17,NNE,22,7.0,12.0,66,0.00,,,0.00,116.0,meteohub,2013-02-21 12:53:00,
2013-02-21 07:58:00,27.1,17.2,30.17,North,5,0.0,12.0,66,0.00,,,0.00,84.0,meteohub,2013-02-21 12:58:00,
2013-02-21 08:03:00,27.3,17.4,30.17,NNW,345,0.0,12.0,66,0.00,,,0.00,120.0,meteohub,2013-02-21 13:03:00,
2013-02-21 08:09:00,27.5,17.2,30.17,NW,325,5.0,12.0,65,0.00,,,0.00,139.0,meteohub,2013-02-21 13:09:00,
2013-02-21 08:14:00,27.7,17.4,30.17,NE,51,2.0,12.0,65,0.00,,,0.00,125.0,meteohub,2013-02-21 13:14:00,
2013-02-21 08:19:00,27.9,17.6,30.17,North,5,8.0,12.0,65,0.00,,,0.00,183.0,meteohub,2013-02-21 13:19:00,
2013-02-21 08:24:00,28.0,17.4,30.17,NNE,21,3.0,12.0,64,0.00,,,0.00,288.0,meteohub,2013-02-21 13:24:00,
2013-02-21 08:29:00,28.2,17.6,30.17,North,0,8.0,12.0,64,0.00,,,0.00,274.0,meteohub,2013-02-21 13:29:00,
2013-02-21 08:34:00,28.2,17.2,30.17,NNW,348,7.0,19.0,63,0.00,,,0.00,290.0,meteohub,2013-02-21 13:34:00,
2013-02-21 08:39:00,28.6,17.6,30.18,NNW,346,8.0,19.0,63,0.00,,,0.00,225.0,meteohub,2013-02-21 13:39:00,
2013-02-21 08:44:00,28.8,17.8,30.18,North,355,17.0,19.0,63,0.00,,,0.00,292.0,meteohub,2013-02-21 13:44:00,
2013-02-21 08:49:00,28.6,17.2,30.17,NNW,335,4.0,19.0,62,0.00,,,0.00,230.0,meteohub,2013-02-21 13:49:00,
2013-02-21 08:54:00,28.8,17.8,30.18,North,355,12.0,19.0,63,0.00,,,0.00,214.0,meteohub,2013-02-21 13:54:00,
2013-02-21 08:59:00,28.9,17.6,30.17,North,349,8.0,20.0,62,0.00,,,0.00,192.0,meteohub,2013-02-21 13:59:00,
2013-02-21 09:04:00,28.9,17.2,30.17,NNW,346,17.0,20.0,61,0.00,,,0.00,295.0,meteohub,2013-02-21 14:04:00,
2013-02-21 09:10:00,28.9,17.6,30.18,North,349,5.0,20.0,62,0.00,,,0.00,283.0,meteohub,2013-02-21 14:10:00,
2013-02-21 09:15:00,29.1,17.4,30.18,NNW,330,7.0,20.0,61,0.00,,,0.00,367.0,meteohub,2013-02-21 14:15:00,
2013-02-21 09:20:00,29.5,17.8,30.19,NW,318,4.0,20.0,61,0.00,,,0.00,329.0,meteohub,2013-02-21 14:20:00,
2013-02-21 09:25:00,29.7,17.8,30.19,North,5,5.0,19.0,61,0.00,,,0.00,364.0,meteohub,2013-02-21 14:25:00,
2013-02-21 09:30:00,29.8,18.0,30.18,NNW,331,8.0,19.0,61,0.00,,,0.00,417.0,meteohub,2013-02-21 14:30:00,
2013-02-21 09:35:00,30.0,18.1,30.19,North,11,3.0,19.0,61,0.00,,,0.00,301.0,meteohub,2013-02-21 14:35:00,
2013-02-21 09:40:00,30.4,18.5,30.19,NNW,338,3.0,19.0,61,0.00,,,0.00,408.0,meteohub,2013-02-21 14:40:00,
2013-02-21 09:45:00,30.6,18.7,30.19,NNW,327,5.0,19.0,61,0.00,,,0.00,294.0,meteohub,2013-02-21 14:45:00,
2013-02-21 09:50:00,30.7,18.5,30.19,North,355,1.0,12.0,60,0.00,,,0.00,429.0,meteohub,2013-02-21 14:50:00,
2013-02-21 09:55:00,30.6,18.3,30.19,NNE,29,4.0,12.0,60,0.00,,,0.00,462.0,meteohub,2013-02-21 14:55:00,
2013-02-21 10:00:00,30.6,18.7,30.19,WNW,296,5.0,12.0,61,0.00,,,0.00,79.0,meteohub,2013-02-21 15:00:00,
2013-02-21 10:05:00,30.7,18.9,30.19,NW,310,5.0,12.0,61,0.00,,,0.00,475.0,meteohub,2013-02-21 15:05:00,
2013-02-21 10:11:00,30.9,19.0,30.19,NNE,22,1.0,14.0,61,0.00,,,0.00,548.0,meteohub,2013-02-21 15:11:00,
2013-02-21 10:16:00,31.3,19.0,30.19,North,350,9.0,14.0,60,0.00,,,0.00,118.0,meteohub,2013-02-21 15:16:00,
2013-02-21 10:21:00,30.7,18.9,30.20,NE,44,4.0,14.0,61,0.00,,,0.00,123.0,meteohub,2013-02-21 15:21:00,
2013-02-21 10:26:00,30.7,18.9,30.20,NW,305,7.0,14.0,61,0.00,,,0.00,98.0,meteohub,2013-02-21 15:26:00,
2013-02-21 10:31:00,30.6,18.7,30.21,NNE,18,11.0,14.0,61,0.00,,,0.00,111.0,meteohub,2013-02-21 15:31:00,
2013-02-21 10:36:00,30.9,19.4,30.21,NNE,13,4.0,16.0,62,0.00,,,0.00,120.0,meteohub,2013-02-21 15:36:00,
2013-02-21 10:41:00,31.6,19.8,30.20,NW,317,5.0,16.0,61,0.00,,,0.00,682.0,meteohub,2013-02-21 15:41:00,
2013-02-21 10:46:00,32.2,19.9,30.20,North,11,4.0,16.0,60,0.00,,,0.00,668.0,meteohub,2013-02-21 15:46:00,
2013-02-21 10:51:00,32.9,20.8,30.20,NNW,338,5.0,16.0,61,0.00,,,0.00,691.0,meteohub,2013-02-21 15:51:00,
2013-02-21 10:56:00,33.3,20.5,30.20,WNW,287,6.0,16.0,59,0.00,,,0.00,691.0,meteohub,2013-02-21 15:56:00,
2013-02-21 11:01:00,33.1,20.3,30.19,NW,319,5.0,15.0,59,0.00,,,0.00,691.0,meteohub,2013-02-21 16:01:00,
2013-02-21 11:06:00,32.7,19.9,30.18,NNW,344,5.0,15.0,59,0.00,,,0.00,696.0,meteohub,2013-02-21 16:06:00,
2013-02-21 11:12:00,33.1,20.7,30.18,NW,312,6.0,15.0,60,0.00,,,0.00,717.0,meteohub,2013-02-21 16:12:00,
2013-02-21 11:17:00,33.1,20.3,30.17,WNW,300,4.0,15.0,59,0.00,,,0.00,694.0,meteohub,2013-02-21 16:17:00,
2013-02-21 11:22:00,33.1,20.3,30.19,WNW,295,5.0,15.0,59,0.00,,,0.00,738.0,meteohub,2013-02-21 16:22:00,
2013-02-21 11:27:00,33.1,20.3,30.19,NNW,341,10.0,15.0,59,0.00,,,0.00,726.0,meteohub,2013-02-21 16:27:00,
2013-02-21 11:32:00,33.3,20.5,30.19,NNW,330,0.0,15.0,59,0.00,,,0.00,744.0,meteohub,2013-02-21 16:32:00,
2013-02-21 11:37:00,33.6,20.8,30.18,NNE,17,2.0,15.0,59,0.00,,,0.00,722.0,meteohub,2013-02-21 16:37:00,
2013-02-21 11:42:00,33.8,20.7,30.19,North,350,6.0,15.0,58,0.00,,,0.00,728.0,meteohub,2013-02-21 16:42:00,
2013-02-21 11:47:00,33.8,20.7,30.19,NNE,19,3.0,14.0,58,0.00,,,0.00,729.0,meteohub,2013-02-21 16:47:00,
2013-02-21 11:52:00,34.2,20.8,30.18,NNW,331,3.0,14.0,58,0.00,,,0.00,731.0,meteohub,2013-02-21 16:52:00,
2013-02-21 11:57:00,34.3,20.7,30.18,North,0,4.0,14.0,57,0.00,,,0.00,737.0,meteohub,2013-02-21 16:57:00,
2013-02-21 12:02:00,34.9,21.6,30.17,NNW,340,4.0,14.0,58,0.00,,,0.00,735.0,meteohub,2013-02-21 17:02:00,
2013-02-21 12:07:00,34.9,21.2,30.18,NNW,345,3.0,14.0,57,0.00,,,0.00,735.0,meteohub,2013-02-21 17:07:00,
2013-02-21 12:12:00,34.7,20.7,30.18,North,10,8.0,13.0,56,0.00,,,0.00,735.0,meteohub,2013-02-21 17:12:00,
2013-02-21 12:17:00,34.7,21.0,30.17,NNE,22,8.0,13.0,57,0.00,,,0.00,737.0,meteohub,2013-02-21 17:17:00,
2013-02-21 12:22:00,34.3,20.3,30.18,North,10,10.0,13.0,56,0.00,,,0.00,733.0,meteohub,2013-02-21 17:22:00,
2013-02-21 12:27:00,34.9,21.2,30.17,NNW,342,1.0,13.0,57,0.00,,,0.00,740.0,meteohub,2013-02-21 17:27:00,
2013-02-21 12:32:00,35.8,21.6,30.18,NNE,15,2.0,13.0,56,0.00,,,0.00,738.0,meteohub,2013-02-21 17:32:00,
2013-02-21 12:37:00,35.8,21.6,30.18,NW,324,5.0,13.0,56,0.00,,,0.00,728.0,meteohub,2013-02-21 17:37:00,
2013-02-21 12:42:00,36.0,21.4,30.18,NNE,24,6.0,16.0,55,0.00,,,0.00,729.0,meteohub,2013-02-21 17:42:00,
2013-02-21 12:47:00,36.0,21.7,30.17,NNW,336,5.0,16.0,56,0.00,,,0.00,731.0,meteohub,2013-02-21 17:47:00,
2013-02-21 12:53:00,36.0,21.4,30.17,North,0,7.0,16.0,55,0.00,,,0.00,731.0,meteohub,2013-02-21 17:53:00,
2013-02-21 12:58:00,36.0,21.0,30.17,North,350,6.0,16.0,54,0.00,,,0.00,715.0,meteohub,2013-02-21 17:58:00,
2013-02-21 13:03:00,35.8,21.2,30.17,NW,318,4.0,16.0,55,0.00,,,0.00,726.0,meteohub,2013-02-21 18:03:00,
2013-02-21 13:08:00,36.1,21.6,30.17,NNW,344,6.0,15.0,55,0.00,,,0.00,712.0,meteohub,2013-02-21 18:08:00,
2013-02-21 13:13:00,36.3,21.7,30.17,NW,321,3.0,15.0,55,0.00,,,0.00,710.0,meteohub,2013-02-21 18:13:00,
2013-02-21 13:18:00,36.9,21.7,30.16,North,0,1.0,15.0,54,0.00,,,0.00,700.0,meteohub,2013-02-21 18:18:00,
2013-02-21 13:23:00,37.6,22.5,30.15,North,0,8.0,15.0,54,0.00,,,0.00,698.0,meteohub,2013-02-21 18:23:00,
2013-02-21 13:28:00,37.2,21.7,30.16,NNE,28,4.0,15.0,53,0.00,,,0.00,691.0,meteohub,2013-02-21 18:28:00,
2013-02-21 13:33:00,37.6,22.8,30.16,NNE,13,6.0,15.0,55,0.00,,,0.00,682.0,meteohub,2013-02-21 18:33:00,
2013-02-21 13:38:00,37.8,22.1,30.15,NNW,341,3.0,11.0,53,0.00,,,0.00,677.0,meteohub,2013-02-21 18:38:00,
2013-02-21 13:44:00,37.6,21.9,30.14,NNW,345,2.0,11.0,53,0.00,,,0.00,673.0,meteohub,2013-02-21 18:44:00,
2013-02-21 13:49:00,37.8,21.7,30.15,North,0,7.0,11.0,52,0.00,,,0.00,663.0,meteohub,2013-02-21 18:49:00,
2013-02-21 13:54:00,37.6,22.5,30.15,North,11,3.0,11.0,54,0.00,,,0.00,652.0,meteohub,2013-02-21 18:54:00,
2013-02-21 13:59:00,37.8,22.1,30.15,NNW,344,7.0,12.0,53,0.00,,,0.00,643.0,meteohub,2013-02-21 18:59:00,
2013-02-21 14:04:00,37.8,22.1,30.14,NNE,28,1.0,12.0,53,0.00,,,0.00,635.0,meteohub,2013-02-21 19:04:00,
2013-02-21 14:09:00,38.1,23.0,30.15,NNE,15,3.0,12.0,54,0.00,,,0.00,622.0,meteohub,2013-02-21 19:09:00,
2013-02-21 14:14:00,38.5,22.5,30.15,NW,319,7.0,12.0,52,0.00,,,0.00,619.0,meteohub,2013-02-21 19:14:00,
2013-02-21 14:19:00,38.5,22.5,30.15,WNW,296,4.0,12.0,52,0.00,,,0.00,605.0,meteohub,2013-02-21 19:19:00,
2013-02-21 14:24:00,38.3,22.3,30.15,North,0,5.0,17.0,52,0.00,,,0.00,592.0,meteohub,2013-02-21 19:24:00,
2013-02-21 14:29:00,38.7,22.6,30.15,NNW,331,6.0,17.0,52,0.00,,,0.00,582.0,meteohub,2013-02-21 19:29:00,
2013-02-21 14:34:00,38.8,22.6,30.15,NW,322,5.0,17.0,52,0.00,,,0.00,536.0,meteohub,2013-02-21 19:34:00,
2013-02-21 14:39:00,38.8,22.6,30.15,NW,318,4.0,17.0,52,0.00,,,0.00,274.0,meteohub,2013-02-21 19:39:00,
2013-02-21 14:45:00,38.8,22.6,30.14,NNW,338,5.0,17.0,52,0.00,,,0.00,190.0,meteohub,2013-02-21 19:45:00,
2013-02-21 14:50:00,38.7,22.6,30.14,North,355,11.0,15.0,52,0.00,,,0.00,269.0,meteohub,2013-02-21 19:50:00,
2013-02-21 14:55:00,38.5,22.5,30.14,WNW,302,3.0,15.0,52,0.00,,,0.00,91.0,meteohub,2013-02-21 19:55:00,
2013-02-21 15:00:00,38.7,23.0,30.14,NNW,346,5.0,15.0,53,0.00,,,0.00,76.0,meteohub,2013-02-21 20:00:00,
2013-02-21 15:05:00,39.4,22.8,30.14,NNW,346,5.0,15.0,51,0.00,,,0.00,113.0,meteohub,2013-02-21 20:05:00,
2013-02-21 15:10:00,39.6,23.0,30.14,NW,322,4.0,15.0,51,0.00,,,0.00,134.0,meteohub,2013-02-21 20:10:00,
2013-02-21 15:15:00,38.8,22.3,30.15,North,9,4.0,13.0,51,0.00,,,0.00,128.0,meteohub,2013-02-21 20:15:00,
2013-02-21 15:20:00,38.8,22.6,30.14,North,0,7.0,15.0,52,0.00,,,0.00,65.0,meteohub,2013-02-21 20:20:00,
2013-02-21 15:25:00,38.8,22.3,30.15,North,349,2.0,15.0,51,0.00,,,0.00,144.0,meteohub,2013-02-21 20:25:00,
2013-02-21 15:31:00,39.0,22.8,30.15,NW,309,3.0,15.0,52,0.00,,,0.00,127.0,meteohub,2013-02-21 20:31:00,
2013-02-21 15:36:00,39.4,22.8,30.15,WNW,290,9.0,12.0,51,0.00,,,0.00,239.0,meteohub,2013-02-21 20:36:00,
2013-02-21 15:41:00,39.4,23.2,30.16,NNE,17,0.0,12.0,52,0.00,,,0.00,183.0,meteohub,2013-02-21 20:41:00,
2013-02-21 15:46:00,39.6,23.4,30.16,North,5,7.0,12.0,52,0.00,,,0.00,206.0,meteohub,2013-02-21 20:46:00,
2013-02-21 15:51:00,39.6,23.4,30.16,NNW,342,6.0,12.0,52,0.00,,,0.00,223.0,meteohub,2013-02-21 20:51:00,
2013-02-21 15:56:00,39.6,23.0,30.15,NNE,24,3.0,11.0,51,0.00,,,0.00,290.0,meteohub,2013-02-21 20:56:00,
2013-02-21 16:01:00,39.4,22.8,30.15,North,0,10.0,11.0,51,0.00,,,0.00,285.0,meteohub,2013-02-21 21:01:00,
2013-02-21 16:06:00,39.4,22.8,30.14,NE,54,3.0,11.0,51,0.00,,,0.00,218.0,meteohub,2013-02-21 21:06:00,
2013-02-21 16:11:00,39.2,22.6,30.15,North,0,4.0,11.0,51,0.00,,,0.00,128.0,meteohub,2013-02-21 21:11:00,
2013-02-21 16:16:00,39.0,22.8,30.15,North,0,4.0,13.0,52,0.00,,,0.00,123.0,meteohub,2013-02-21 21:16:00,
2013-02-21 16:21:00,39.0,22.8,30.15,NNW,336,2.0,12.0,52,0.00,,,0.00,56.0,meteohub,2013-02-21 21:21:00,
2013-02-21 16:26:00,39.2,23.0,30.15,NNE,12,5.0,12.0,52,0.00,,,0.00,47.0,meteohub,2013-02-21 21:26:00,
2013-02-21 16:31:00,39.0,22.8,30.15,North,0,1.0,12.0,52,0.00,,,0.00,46.0,meteohub,2013-02-21 21:31:00,
2013-02-21 16:37:00,39.0,22.8,30.16,ENE,57,1.0,8.0,52,0.00,,,0.00,67.0,meteohub,2013-02-21 21:37:00,
2013-02-21 16:42:00,38.8,22.6,30.17,North,11,4.0,8.0,52,0.00,,,0.00,39.0,meteohub,2013-02-21 21:42:00,
2013-02-21 16:47:00,38.8,23.2,30.17,NNW,340,4.0,8.0,53,0.00,,,0.00,37.0,meteohub,2013-02-21 21:47:00,
2013-02-21 16:52:00,38.7,23.0,30.18,NNE,22,7.0,11.0,53,0.00,,,0.00,54.0,meteohub,2013-02-21 21:52:00,
2013-02-21 16:57:00,38.5,22.8,30.18,ENE,63,4.0,11.0,53,0.00,,,0.00,42.0,meteohub,2013-02-21 21:57:00,
2013-02-21 17:02:00,38.5,22.8,30.18,NNE,18,4.0,11.0,53,0.00,,,0.00,42.0,meteohub,2013-02-21 22:02:00,
2013-02-21 17:07:00,38.3,22.6,30.19,NW,322,5.0,11.0,53,0.00,,,0.00,49.0,meteohub,2013-02-21 22:07:00,
2013-02-21 17:12:00,38.1,23.0,30.19,North,0,2.0,12.0,54,0.00,,,0.00,25.0,meteohub,2013-02-21 22:12:00,
2013-02-21 17:17:00,37.9,22.8,30.19,NNW,336,4.0,12.0,54,0.00,,,0.00,23.0,meteohub,2013-02-21 22:17:00,
2013-02-21 17:22:00,37.9,22.8,30.20,North,9,7.0,12.0,54,0.00,,,0.00,28.0,meteohub,2013-02-21 22:22:00,
2013-02-21 17:27:00,37.8,22.6,30.20,NNW,340,3.0,12.0,54,0.00,,,0.00,28.0,meteohub,2013-02-21 22:27:00,
2013-02-21 17:32:00,37.6,22.8,30.20,North,355,8.0,12.0,55,0.00,,,0.00,16.0,meteohub,2013-02-21 22:32:00,
2013-02-21 17:37:00,37.2,22.5,30.21,NNE,16,5.0,12.0,55,0.00,,,0.00,12.0,meteohub,2013-02-21 22:37:00,
2013-02-21 17:42:00,37.0,22.5,30.22,NNE,33,6.0,12.0,55,0.00,,,0.00,7.0,meteohub,2013-02-21 22:42:00,
2013-02-21 17:47:00,37.0,22.8,30.22,NNW,342,0.0,12.0,56,0.00,,,0.00,0.0,meteohub,2013-02-21 22:47:00,
2013-02-21 17:52:00,36.9,22.6,30.22,ENE,66,0.0,10.0,56,0.00,,,0.00,0.0,meteohub,2013-02-21 22:52:00,
2013-02-21 17:57:00,36.7,22.5,30.22,North,355,3.0,10.0,56,0.00,,,0.00,0.0,meteohub,2013-02-21 22:57:00,
2013-02-21 18:03:00,36.3,22.5,30.22,NW,325,4.0,10.0,57,0.00,,,0.00,0.0,meteohub,2013-02-21 23:03:00,
2013-02-21 18:08:00,36.3,22.5,30.22,NNW,344,0.0,10.0,57,0.00,,,0.00,0.0,meteohub,2013-02-21 23:08:00,
2013-02-21 18:13:00,36.3,22.5,30.22,NW,319,1.0,8.0,57,0.00,,,0.00,0.0,meteohub,2013-02-21 23:13:00,
2013-02-21 18:18:00,36.1,22.5,30.22,NNW,331,2.0,8.0,57,0.00,,,0.00,0.0,meteohub,2013-02-21 23:18:00,
2013-02-21 18:23:00,36.1,22.8,30.23,NNW,336,5.0,8.0,58,0.00,,,0.00,0.0,meteohub,2013-02-21 23:23:00,
2013-02-21 18:28:00,36.0,22.3,30.23,North,0,4.0,8.0,57,0.00,,,0.00,0.0,meteohub,2013-02-21 23:28:00,
2013-02-21 18:33:00,36.0,22.6,30.23,North,5,5.0,8.0,58,0.00,,,0.00,0.0,meteohub,2013-02-21 23:33:00,
2013-02-21 18:38:00,36.0,22.6,30.24,NNE,32,2.0,10.0,58,0.00,,,0.00,0.0,meteohub,2013-02-21 23:38:00,
2013-02-21 18:43:00,35.8,22.5,30.24,NW,321,3.0,10.0,58,0.00,,,0.00,0.0,meteohub,2013-02-21 23:43:00,
2013-02-21 18:48:00,35.6,22.3,30.24,North,0,2.0,10.0,58,0.00,,,0.00,0.0,meteohub,2013-02-21 23:48:00,
2013-02-21 18:53:00,35.6,22.6,30.25,NNE,14,1.0,10.0,59,0.00,,,0.00,0.0,meteohub,2013-02-21 23:53:00,
2013-02-21 18:58:00,35.4,22.5,30.25,NNE,16,2.0,6.0,59,0.00,,,0.00,0.0,meteohub,2013-02-21 23:58:00,
2013-02-21 19:03:00,35.2,22.3,30.26,NNW,344,0.0,6.0,59,0.00,,,0.00,0.0,meteohub,2013-02-22 00:03:00,
2013-02-21 19:09:00,35.2,22.3,30.26,North,5,0.0,6.0,59,0.00,,,0.00,0.0,meteohub,2013-02-22 00:09:00,
2013-02-21 19:14:00,35.2,22.3,30.26,NNE,15,2.0,12.0,59,0.00,,,0.00,0.0,meteohub,2013-02-22 00:14:00,
2013-02-21 19:19:00,35.1,22.1,30.26,WNW,300,3.0,12.0,59,0.00,,,0.00,0.0,meteohub,2013-02-22 00:19:00,
2013-02-21 19:24:00,35.1,22.1,30.26,NNE,28,5.0,12.0,59,0.00,,,0.00,0.0,meteohub,2013-02-22 00:24:00,
2013-02-21 19:29:00,34.9,22.5,30.27,NNW,329,1.0,12.0,60,0.00,,,0.00,0.0,meteohub,2013-02-22 00:29:00,
2013-02-21 19:34:00,34.9,22.5,30.27,NNW,338,4.0,12.0,60,0.00,,,0.00,0.0,meteohub,2013-02-22 00:34:00,
2013-02-21 19:39:00,34.5,22.1,30.26,NNE,13,7.0,12.0,60,0.00,,,0.00,0.0,meteohub,2013-02-22 00:39:00,
2013-02-21 19:44:00,34.3,21.9,30.27,NNE,32,1.0,12.0,60,0.00,,,0.00,0.0,meteohub,2013-02-22 00:44:00,
2013-02-21 19:49:00,34.3,21.9,30.27,North,0,2.0,12.0,60,0.00,,,0.00,0.0,meteohub,2013-02-22 00:49:00,
2013-02-21 19:54:00,34.3,21.9,30.27,NNE,16,1.0,9.0,60,0.00,,,0.00,0.0,meteohub,2013-02-22 00:54:00,
2013-02-21 19:59:00,34.3,22.3,30.27,NW,321,2.0,9.0,61,0.00,,,0.00,0.0,meteohub,2013-02-22 00:59:00,
2013-02-21 20:04:00,34.2,22.1,30.27,NNW,342,0.0,9.0,61,0.00,,,0.00,0.0,meteohub,2013-02-22 01:04:00,
2013-02-21 20:09:00,34.2,22.1,30.27,NNW,340,0.0,9.0,61,0.00,,,0.00,0.0,meteohub,2013-02-22 01:09:00,
2013-02-21 20:15:00,34.0,21.9,30.27,North,5,2.0,8.0,61,0.00,,,0.00,0.0,meteohub,2013-02-22 01:15:00,
2013-02-21 20:20:00,33.8,21.7,30.27,North,9,2.0,8.0,61,0.00,,,0.00,0.0,meteohub,2013-02-22 01:20:00,
2013-02-21 20:25:00,33.8,21.7,30.28,NNW,347,3.0,8.0,61,0.00,,,0.00,0.0,meteohub,2013-02-22 01:25:00,
2013-02-21 20:30:00,33.6,21.9,30.28,NNW,338,5.0,8.0,62,0.00,,,0.00,0.0,meteohub,2013-02-22 01:30:00,
2013-02-21 20:35:00,33.6,21.6,30.28,NNW,334,1.0,8.0,61,0.00,,,0.00,0.0,meteohub,2013-02-22 01:35:00,
2013-02-21 20:40:00,33.6,21.9,30.28,NNW,344,1.0,8.0,62,0.00,,,0.00,0.0,meteohub,2013-02-22 01:40:00,
2013-02-21 20:45:00,33.6,21.9,30.28,NNE,26,1.0,8.0,62,0.00,,,0.00,0.0,meteohub,2013-02-22 01:45:00,
2013-02-21 20:50:00,33.4,21.7,30.27,NNE,17,2.0,8.0,62,0.00,,,0.00,0.0,meteohub,2013-02-22 01:50:00,
2013-02-21 20:55:00,33.3,21.7,30.28,North,0,2.0,9.0,62,0.00,,,0.00,0.0,meteohub,2013-02-22 01:55:00,
2013-02-21 21:00:00,33.3,22.1,30.28,NNE,24,1.0,9.0,63,0.00,,,0.00,0.0,meteohub,2013-02-22 02:00:00,
2013-02-21 21:05:00,33.3,22.1,30.28,North,355,0.0,9.0,63,0.00,,,0.00,0.0,meteohub,2013-02-22 02:05:00,
2013-02-21 21:10:00,33.1,21.9,30.29,North,5,0.0,9.0,63,0.00,,,0.00,0.0,meteohub,2013-02-22 02:10:00,
2013-02-21 21:15:00,33.1,21.9,30.29,North,0,2.0,6.0,63,0.00,,,0.00,0.0,meteohub,2013-02-22 02:15:00,
2013-02-21 21:21:00,33.1,21.9,30.29,NW,319,6.0,6.0,63,0.00,,,0.00,0.0,meteohub,2013-02-22 02:21:00,
2013-02-21 21:26:00,32.9,22.1,30.29,North,355,0.0,6.0,64,0.00,,,0.00,0.0,meteohub,2013-02-22 02:26:00,
2013-02-21 21:31:00,32.7,21.9,30.29,North,0,1.0,6.0,64,0.00,,,0.00,0.0,meteohub,2013-02-22 02:31:00,
2013-02-21 21:36:00,32.7,21.9,30.29,NNW,341,3.0,6.0,64,0.00,,,0.00,0.0,meteohub,2013-02-22 02:36:00,
2013-02-21 21:41:00,32.7,21.9,30.30,NNE,14,3.0,6.0,64,0.00,,,0.00,0.0,meteohub,2013-02-22 02:41:00,
2013-02-21 21:46:00,32.7,21.9,30.30,North,0,2.0,6.0,64,0.00,,,0.00,0.0,meteohub,2013-02-22 02:46:00,
2013-02-21 21:51:00,32.7,21.9,30.30,ENE,57,1.0,6.0,64,0.00,,,0.00,0.0,meteohub,2013-02-22 02:51:00,
2013-02-21 21:56:00,32.5,21.7,30.30,NNE,24,4.0,10.0,64,0.00,,,0.00,0.0,meteohub,2013-02-22 02:56:00,
2013-02-21 22:01:00,32.5,21.7,30.30,NNE,20,1.0,10.0,64,0.00,,,0.00,0.0,meteohub,2013-02-22 03:01:00,
2013-02-21 22:06:00,32.5,21.7,30.30,NNW,343,0.0,10.0,64,0.00,,,0.00,0.0,meteohub,2013-02-22 03:06:00,
2013-02-21 22:11:00,32.4,21.9,30.30,NNW,346,3.0,10.0,65,0.00,,,0.00,0.0,meteohub,2013-02-22 03:11:00,
2013-02-21 22:16:00,32.4,21.9,30.30,NNE,15,0.0,4.0,65,0.00,,,0.00,0.0,meteohub,2013-02-22 03:16:00,
2013-02-21 22:21:00,32.4,21.9,30.30,North,0,3.0,4.0,65,0.00,,,0.00,0.0,meteohub,2013-02-22 03:21:00,
2013-02-21 22:26:00,32.2,21.7,30.30,NNW,336,0.0,4.0,65,0.00,,,0.00,0.0,meteohub,2013-02-22 03:26:00,
2013-02-21 22:32:00,32.2,21.7,30.30,NNW,342,1.0,4.0,65,0.00,,,0.00,0.0,meteohub,2013-02-22 03:32:00,